Vorticity
6 8 5 1 1 5 7 9 12 8 9 12 11 12 11 13 13 14 9 14 18 10 9 9 9 10 11 10 7 9 5 4 6 6 9 13 8 7 9 10 13 16 7 4 2 6 3
9 7 12 6 5 10 9 7 6 6 8 7 6 6 7 5 4 9 8 10 8 9 7 6 6 9 12 13 13 16 15 13 13 12 9 9 7 8 11 8 7 4 6 12 12 -2 -3
6 7 7 10 9 7 5 6 4 5 7 8 7 6 8 7 6 5 5 7 7 7 6 7 9 10 8 9 9 9 11 9 9 10 11 6 9 8 10 13 17 9 11 10 7 -5 21
4 6 8 7 6 5 6 5 7 7 8 10 8 7 9 9 7 8 8 7 9 8 8 11 8 7 7 7 9 8 7 -0 8 10 6 11 4 6 6 10 3 -1 1 5 16 12 -7
6 8 6 4 6 7 6 6 7 8 8 9 9 10 11 10 11 11 11 10 10 9 8 8 10 17 22 29 24 16 14 13 13 8 13 3 6 8 7 9 12 19 -2 -5 -2 5 3
7 5 4 5 6 7 7 8 9 10 10 12 10 11 11 11 11 12 12 12 13 12 12 13 27 11 9 11 7 8 12 19 17 6 -1 5 10 8 9 17 1 25 13 4 2 7 -2
4 6 5 5 5 7 9 13 12 12 13 11 10 10 11 12 12 13 14 12 10 18 1 19 2 11 9 10 -6 -10 -6 -4 -6 2 7 10 10 5 14 -2 3 6 6 5 11 1 15
4 5 3 6 10 13 12 14 14 12 11 12 9 11 9 8 7 6 9 9 9 6 10 31 18 18 27 21 18 21 27 17 10 10 9 12 9 11 17 19 15 -3 3 6 11 -0 4
4 4 5 11 15 13 12 11 11 11 9 8 7 6 7 11 5 10 10 10 10 9 18 37 21 22 19 19 22 24 19 16 11 9 7 8 -14 -21 -13 8 5 9 5 10 7 15 7
4 5 12 14 12 11 12 11 8 6 6 6 8 8 7 6 14 6 8 7 12 3 51 8 6 8 5 17 17 9 29 5 4 16 17 24 37 29 13 -5 12 11 36 27 15 16 4
5 12 14 13 11 9 9 9 7 6 5 6 5 8 6 9 6 7 7 10 10 28 19 4 0 10 9 2 -0 2 1 15 10 -4 -5 -23 -10 -1 8 9 6 10 -1 1 6 7 7
13 13 13 11 10 8 7 7 6 7 6 7 8 6 4 7 8 8 8 8 21 33 3 13 12 -5 -9 1 2 9 15 12 11 6 9 18 19 12 6 8 9 7 3 26 43 36 18
13 13 11 9 8 7 8 6 5 6 3 6 8 7 10 8 5 11 7 10 42 14 -14 -6 -9 9 19 29 21 21 22 17 6 9 9 -10 31 28 23 9 15 -1 9 10 8 2 1
13 11 9 8 8 9 7 6 6 4 6 7 7 8 11 8 10 11 10 19 22 -16 12 -1 7 5 13 7 11 -30 7 1 17 20 5 21 14 15 7 27 -9 1 20 -2 10 8 -9
11 9 8 8 9 9 7 6 5 4 5 7 7 6 17 5 11 12 14 38 2 -2 -15 17 14 23 3 -11 -16 24 10 32 13 2 -3 6 15 -26 2 15 -13 6 7 6 -2 30 26
9 7 8 8 9 8 8 5 5 6 4 6 8 9 11 8 13 15 14 15 -2 2 15 2 19 15 -14 18 28 19 18 11 2 -5 -10 -0 25 15 4 19 27 4 -3 20 20 11 14
8 7 8 9 8 9 7 5 7 7 5 3 12 11 3 10 10 15 15 7 12 -4 28 9 5 3 -5 8 16 -7 1 -1 33 44 17 4 30 8 -9 1 -13 18 21 11 13 12 5
8 7 9 9 8 7 6 7 7 5 6 8 8 29 1 18 32 -6 5 12 5 32 17 25 8 -3 6 7 13 11 0 -6 -2 -5 25 20 6 -3 2 19 15 15 4 -15 17 2 -14
8 7 9 9 6 6 6 7 6 6 6 6 7 21 13 13 7 11 10 7 30 9 8 2 14 7 19 19 34 -3 21 -13 24 6 -13 8 -6 20 19 18 7 16 -10 -5 -7 21 19
7 9 9 7 6 7 6 6 6 6 7 9 11 17 11 6 9 14 6 20 11 17 31 23 -7 15 -2 -7 32 -12 -8 7 -5 13 -20 22 9 7 -31 -29 -14 -1 9 5 13 8 4
7 9 8 6 6 6 6 6 7 7 7 9 9 -4 8 -5 13 11 17 22 15 12 -12 11 35 16 -14 12 7 45 -15 20 20 7 29 23 -7 12 7 19 18 3 8 13 1 0 12
8 9 7 6 5 6 6 7 6 6 7 11 13 14 9 11 14 13 11 10 19 -8 20 -1 9 11 15 20 14 10 11 14 16 -5 27 11 -6 6 13 21 4 23 16 16 20 42 22
8 9 7 5 5 6 6 6 6 7 8 8 4 9 12 12 12 14 17 13 6 10 13 7 16 18 13 -0 4 19 18 13 9 14 8 7 10 17 -2 4 22 31 46 34 7 17 9
8 9 7 5 5 6 5 5 6 8 8 9 7 9 13 11 20 19 16 5 19 0 10 19 9 7 13 -2 16 33 35 27 28 34 37 19 28 3 14 32 20 38 -9 16 18 14 3
9 9 6 5 5 5 5 5 6 6 7 9 9 9 11 8 31 15 18 11 17 19 14 -4 11 -1 22 9 16 24 11 18 8 -7 19 39 35 17 9 9 -12 14 20 3 7 4 9
9 8 5 6 5 5 5 6 6 5 8 9 9 7 11 12 -10 19 9 21 13 14 5 15 9 10 -9 26 16 8 5 -8 -3 21 -5 14 13 20 3 11 4 13 -24 7 12 11 -3
9 7 5 6 5 6 6 6 6 6 7 9 9 10 11 18 15 4 15 9 12 11 10 -1 13 27 10 -0 19 16 -1 -9 -6 15 3 21 35 -8 24 30 22 2 10 25 26 -6 -5
9 7 6 5 5 6 6 6 6 6 6 9 6 11 15 15 20 25 6 9 6 14 8 5 21 -13 36 12 16 -14 9 -9 17 3 -1 7 33 20 9 13 29 -42 34 43 9 2 -2
8 7 5 5 6 6 6 6 7 7 7 8 11 14 14 19 23 3 8 4 7 21 6 4 10 16 -5 14 -2 -0 16 28 7 3 12 17 -8 17 26 -18 6 18 2 4 -1 1 4
Height
3144 3142 3139 3136 3133 3129 3125 3121 3117 3113 3108 3105 3101 3097 3094 3092 3088 3084 3081 3077 3074 3072 3070 3068 3065 3061 3058 3057 3058 3055 3054 3054 3052 3052 3052 3053 3053 3054 3052 3050 3049 3048 3049 3050 3050 3051 3050
3144 3141 3139 3136 3132 3129 3124 3120 3116 3110 3106 3102 3098 3094 3090 3086 3084 3081 3078 3074 3070 3067 3065 3062 3059 3056 3054 3053 3050 3049 3048 3048 3047 3047 3047 3048 3048 3048 3046 3045 3044 3044 3044 3046 3045 3045 3044
3144 3141 3139 3135 3131 3128 3124 3119 3113 3109 3105 3100 3097 3093 3089 3085 3082 3078 3074 3071 3068 3064 3060 3057 3053 3050 3048 3049 3044 3043 3042 3042 3042 3042 3042 3042 3042 3042 3041 3039 3039 3039 3039 3039 3040 3041 3039
3144 3140 3137 3133 3130 3126 3121 3117 3112 3107 3103 3098 3095 3091 3087 3082 3079 3075 3071 3068 3063 3059 3056 3052 3049 3045 3043 3040 3038 3037 3037 3037 3037 3037 3037 3038 3037 3036 3035 3035 3034 3034 3034 3034 3035 3036 3034
3143 3139 3136 3133 3129 3125 3119 3114 3110 3105 3101 3097 3093 3089 3084 3080 3076 3072 3067 3063 3059 3055 3051 3047 3044 3041 3038 3034 3033 3031 3031 3031 3031 3032 3031 3032 3032 3031 3030 3029 3029 3029 3028 3029 3031 3031 3027
3141 3138 3135 3131 3127 3123 3118 3113 3107 3103 3099 3096 3092 3087 3083 3078 3073 3069 3064 3059 3054 3051 3047 3041 3036 3037 3034 3031 3029 3028 3026 3026 3027 3027 3027 3027 3025 3024 3023 3024 3024 3024 3024 3024 3026 3026 3019
3141 3137 3134 3129 3124 3120 3115 3111 3106 3101 3098 3094 3089 3086 3081 3076 3071 3066 3061 3055 3052 3045 3044 3039 3032 3027 3025 3025 3025 3025 3024 3023 3023 3024 3023 3022 3021 3017 3020 3019 3019 3019 3019 3017 3021 3022 3010
3139 3135 3132 3127 3122 3117 3113 3109 3105 3100 3096 3092 3088 3085 3079 3073 3069 3064 3058 3053 3047 3042 3031 3033 3026 3022 3020 3018 3017 3018 3019 3020 3018 3018 3019 3019 3015 3016 3015 3014 3014 3014 3013 3013 3015 3016 3008
3137 3134 3129 3124 3120 3115 3111 3108 3104 3099 3095 3092 3088 3083 3079 3072 3066 3061 3055 3050 3044 3037 3031 3024 3021 3019 3019 3017 3014 3014 3015 3014 3014 3013 3014 3014 3014 3012 3012 3011 3010 3009 3008 3009 3010 3009 3006
3135 3132 3127 3123 3118 3115 3112 3108 3102 3097 3093 3090 3087 3082 3077 3070 3067 3057 3052 3047 3041 3035 3027 3026 3024 3021 3021 3018 3016 3014 3012 3014 3011 3010 3009 3010 3009 3009 3008 3008 3007 3005 3004 3004 3005 3006 3006
3133 3129 3125 3121 3118 3113 3111 3107 3103 3097 3090 3088 3084 3080 3075 3067 3062 3057 3053 3045 3040 3034 3035 3030 3027 3024 3022 3022 3020 3015 3013 3009 3008 3007 3009 3006 3004 3004 3003 3003 3003 3002 3001 3000 3000 3000 3001
3131 3127 3124 3121 3118 3113 3110 3107 3103 3098 3090 3086 3083 3078 3073 3068 3061 3056 3050 3044 3038 3037 3033 3031 3028 3025 3023 3019 3015 3012 3009 3007 3005 3003 3001 2999 3000 2997 2996 2997 2998 2998 2997 2995 2993 2995 2993
3129 3125 3122 3120 3117 3114 3110 3106 3102 3097 3090 3085 3082 3077 3072 3066 3061 3054 3049 3044 3041 3035 3036 3032 3027 3023 3019 3015 3011 3008 3006 3004 3004 3002 2999 2997 2992 2991 2992 2992 2994 2995 2994 2992 2992 2989 2986
3127 3124 3121 3120 3117 3113 3109 3105 3101 3097 3092 3083 3079 3076 3071 3065 3059 3053 3048 3045 3040 3038 3035 3032 3027 3023 3019 3015 3012 3008 3007 3004 3002 2999 2997 2995 2991 2990 2990 2989 2991 2991 2992 2992 2993 2985 2982
3125 3123 3120 3118 3116 3112 3108 3104 3100 3096 3091 3083 3077 3073 3069 3064 3058 3051 3048 3044 3042 3039 3037 3029 3024 3021 3020 3017 3014 3008 3005 3001 3000 2999 2999 2993 2988 2988 2989 2988 2990 2989 2990 2990 2987 2981 2979
3124 3121 3119 3116 3113 3110 3107 3103 3098 3095 3089 3081 3075 3069 3066 3060 3055 3049 3045 3044 3042 3038 3034 3030 3025 3023 3019 3015 3012 3009 3005 3003 3000 2997 2995 2992 2989 2987 2986 2987 2988 2988 2989 2987 2985 2980 2970
3123 3120 3117 3114 3111 3108 3104 3101 3097 3093 3087 3081 3074 3067 3061 3056 3051 3047 3043 3040 3036 3034 3030 3027 3024 3020 3018 3014 3011 3008 3005 3002 2998 2994 2990 2989 2987 2987 2986 2986 2986 2986 2985 2985 2985 2981 2975
3120 3118 3115 3112 3109 3106 3102 3099 3095 3091 3084 3078 3073 3067 3061 3052 3050 3044 3041 3037 3033 3029 3027 3025 3022 3018 3016 3012 3008 3005 3003 3001 2998 2994 2989 2988 2985 2983 2982 2982 2981 2981 2981 2981 2982 2981 2979
3119 3116 3113 3111 3108 3104 3100 3097 3092 3088 3081 3075 3069 3062 3058 3050 3047 3041 3036 3034 3030 3026 3025 3022 3019 3016 3012 3010 3007 3002 2999 2998 2995 2992 2989 2987 2986 2983 2980 2981 2979 2980 2978 2978 2978 2975 2972
3117 3114 3111 3109 3106 3102 3098 3094 3090 3085 3078 3072 3065 3060 3052 3047 3043 3038 3033 3030 3026 3023 3020 3019 3017 3016 3010 3005 3003 2997 2995 2992 2991 2990 2988 2986 2982 2982 2979 2978 2978 2976 2975 2974 2973 2970 2965
3115 3112 3109 3107 3105 3100 3095 3092 3088 3083 3077 3071 3064 3059 3054 3049 3041 3036 3032 3028 3024 3021 3019 3018 3013 3012 3007 3002 2996 2993 2990 2985 2984 2983 2983 2982 2977 2976 2972 2972 2971 2968 2966 2965 2964 2962 2960
3112 3111 3107 3105 3102 3098 3094 3089 3084 3080 3075 3069 3063 3057 3048 3044 3038 3033 3028 3024 3023 3019 3019 3014 3011 3007 3005 3000 2997 2986 2984 2981 2976 2976 2976 2975 2970 2969 2964 2965 2965 2960 2959 2956 2954 2953 2950
3110 3108 3105 3102 3099 3095 3091 3087 3082 3076 3071 3065 3058 3051 3046 3042 3036 3030 3026 3023 3022 3016 3014 3012 3007 3003 3001 2996 2991 2985 2979 2974 2971 2969 2969 2969 2966 2965 2960 2961 2960 2956 2952 2950 2951 2948 2947
3107 3105 3102 3100 3096 3092 3088 3084 3080 3076 3069 3063 3056 3049 3043 3039 3033 3029 3025 3021 3016 3014 3011 3009 3006 3002 2998 2992 2986 2978 2972 2967 2966 2964 2964 2962 2962 2962 2957 2959 2961 2951 2950 2949 2948 2945 2945
3104 3102 3100 3097 3094 3090 3084 3080 3075 3070 3064 3059 3053 3046 3038 3034 3029 3026 3021 3016 3013 3013 3011 3007 3004 3000 2994 2989 2981 2973 2969 2968 2965 2964 2963 2960 2960 2958 2955 2954 2952 2950 2949 2947 2944 2944 2941
3100 3098 3096 3094 3091 3086 3081 3076 3070 3065 3060 3054 3049 3041 3033 3031 3025 3021 3017 3014 3011 3007 3004 3004 3001 2996 2992 2987 2983 2978 2975 2972 2968 2966 2962 2962 2960 2959 2955 2952 2951 2947 2946 2944 2942 2940 2939
3096 3094 3092 3090 3087 3083 3078 3073 3068 3063 3057 3052 3045 3039 3032 3027 3023 3019 3016 3014 3010 3007 3004 3001 2999 2995 2992 2987 2983 2980 2977 2976 2972 2969 2965 2960 2958 2957 2952 2949 2946 2945 2944 2941 2941 2945 2937
3092 3091 3088 3086 3084 3080 3074 3069 3064 3058 3052 3048 3041 3036 3030 3023 3020 3017 3015 3011 3007 3005 3004 3001 2996 2992 2989 2987 2984 2982 2978 2975 2971 2970 2967 2965 2961 2956 2955 2951 2946 2944 2943 2943 2943 2939 2935
3088 3087 3084 3082 3080 3075 3070 3066 3061 3055 3049 3043 3037 3031 3025 3021 3019 3015 3011 3009 3006 3003 3001 2998 2997 2993 2991 2988 2985 2981 2979 2975 2971 2968 2966 2965 2963 2961 2960 2954 2949 2945 2943 2941 2938 2935 2933